VOI801 KDFW-MMMX

Flight info

Callsign VOI801
Flight time N/A
Altitude 33000
Route NELYN6 HOARY DCT BRO/N0467F340 DCT MAM UJ59 MAPIL/N0466F350 UJ59 TAM/N0466F340 UT100 ENAGA ENAGA3B
Aircraft A321/M-SDE3FGHIRWY/LB1

Departure

Time 2026-05-07 23:18
Airport Dallas Fort Worth International Airport (KDFW)

Arrival

Time N/A
Airport Mexico City Benito Juárez International Airport (MMMX)
Time Latitude Longitude Altitude Speed Heading
2026-05-07 22:23 32.89495 -97.04309 599 ft 0 kts
2026-05-07 23:05 32.89491 -97.04309 598 ft 3 kts
2026-05-07 23:06 32.89467 -97.04309 598 ft 3 kts
2026-05-07 23:06 32.89450 -97.04308 598 ft 3 kts 330°
2026-05-07 23:06 32.89432 -97.04290 598 ft 3 kts 315°
2026-05-07 23:06 32.89434 -97.04302 598 ft 3 kts 272°
2026-05-07 23:07 32.89427 -97.04329 598 ft 3 kts 255°
2026-05-07 23:07 32.89425 -97.04357 598 ft 3 kts 269°
2026-05-07 23:07 32.89425 -97.04363 598 ft 0 kts 271°
2026-05-07 23:09 32.89425 -97.04364 598 ft 1 kts 271°
2026-05-07 23:10 32.89426 -97.04403 598 ft 8 kts 274°
2026-05-07 23:10 32.89430 -97.04480 598 ft 11 kts 271°
2026-05-07 23:10 32.89431 -97.04584 598 ft 14 kts 269°
2026-05-07 23:10 32.89430 -97.04702 598 ft 15 kts 270°
2026-05-07 23:11 32.89370 -97.04769 598 ft 14 kts 181°
2026-05-07 23:11 32.89272 -97.04767 598 ft 14 kts 179°
2026-05-07 23:11 32.89171 -97.04769 598 ft 15 kts 181°
2026-05-07 23:11 32.89069 -97.04771 598 ft 15 kts 181°
2026-05-07 23:12 32.88963 -97.04769 598 ft 15 kts 178°
2026-05-07 23:12 32.88855 -97.04767 598 ft 15 kts 185°
2026-05-07 23:12 32.88747 -97.04772 598 ft 16 kts 180°
2026-05-07 23:12 32.88637 -97.04773 598 ft 16 kts 180°
2026-05-07 23:13 32.88524 -97.04781 598 ft 16 kts 197°
2026-05-07 23:13 32.88414 -97.04809 598 ft 16 kts 180°
2026-05-07 23:13 32.88298 -97.04809 598 ft 17 kts 180°
2026-05-07 23:13 32.88181 -97.04808 598 ft 17 kts 180°
2026-05-07 23:14 32.88073 -97.04808 598 ft 15 kts 180°
2026-05-07 23:14 32.87986 -97.04838 598 ft 12 kts 243°
2026-05-07 23:14 32.87985 -97.04944 598 ft 13 kts 270°
2026-05-07 23:14 32.87984 -97.04974 598 ft 0 kts 269°
2026-05-07 23:15 32.87984 -97.04975 598 ft 1 kts 269°
2026-05-07 23:16 32.87984 -97.05003 598 ft 6 kts 269°
2026-05-07 23:16 32.87984 -97.05067 598 ft 8 kts 274°
2026-05-07 23:16 32.88026 -97.05092 598 ft 8 kts 358°
2026-05-07 23:16 32.88082 -97.05092 598 ft 9 kts
2026-05-07 23:17 32.88287 -97.05089 598 ft 63 kts
2026-05-07 23:17 32.88950 -97.05086 599 ft 125 kts
2026-05-07 23:17 32.89977 -97.05081 599 ft 172 kts
2026-05-07 23:17 32.91248 -97.05070 1024 ft 180 kts
2026-05-07 23:18 32.92502 -97.05097 1661 ft 182 kts 359°
2026-05-07 23:18 32.93780 -97.05162 2288 ft 184 kts 358°
2026-05-07 23:18 32.95070 -97.05479 2639 ft 198 kts 339°
2026-05-07 23:18 32.96421 -97.06075 2791 ft 221 kts 340°
2026-05-07 23:19 32.97905 -97.06716 2911 ft 243 kts 342°
2026-05-07 23:19 32.99534 -97.07461 3323 ft 255 kts 331°
2026-05-07 23:19 33.00733 -97.08884 3934 ft 259 kts 296°
2026-05-07 23:19 33.01076 -97.10900 4569 ft 263 kts 266°
2026-05-07 23:20 33.00918 -97.12967 5249 ft 263 kts 266°
2026-05-07 23:20 33.00775 -97.15146 5968 ft 264 kts 266°
2026-05-07 23:20 33.00636 -97.17339 6622 ft 267 kts 265°
2026-05-07 23:20 33.00447 -97.19592 7130 ft 277 kts 264°
2026-05-07 23:21 33.00187 -97.21874 7783 ft 279 kts 257°
2026-05-07 23:21 32.99503 -97.24024 8435 ft 283 kts 242°
2026-05-07 23:21 32.98332 -97.25908 9089 ft 285 kts 226°
2026-05-07 23:21 32.96851 -97.27497 9758 ft 287 kts 219°
2026-05-07 23:22 32.95121 -97.28650 10388 ft 291 kts 204°
2026-05-07 23:22 32.93302 -97.29203 10550 ft 314 kts 189°
2026-05-07 23:22 32.91036 -97.29192 10698 ft 336 kts 182°
2026-05-07 23:22 32.88684 -97.29064 10824 ft 354 kts 181°
2026-05-07 23:23 32.86265 -97.28922 11085 ft 364 kts 181°
2026-05-07 23:23 32.83726 -97.28776 11586 ft 368 kts 182°
2026-05-07 23:23 32.81140 -97.28638 12188 ft 371 kts 182°
2026-05-07 23:23 32.78584 -97.28495 12761 ft 372 kts 182°
2026-05-07 23:24 32.76020 -97.28076 13314 ft 379 kts 176°
2026-05-07 23:24 32.73494 -97.27563 13837 ft 382 kts 176°
2026-05-07 23:24 32.70751 -97.27020 14404 ft 386 kts 176°
2026-05-07 23:24 32.68156 -97.26489 14900 ft 388 kts 176°
2026-05-07 23:25 32.65504 -97.25958 15426 ft 391 kts 176°
2026-05-07 23:25 32.62805 -97.25423 15944 ft 396 kts 176°
2026-05-07 23:25 32.60013 -97.24876 16546 ft 399 kts 176°
2026-05-07 23:25 32.57453 -97.24369 17032 ft 401 kts 176°
2026-05-07 23:26 32.54718 -97.23821 17502 ft 404 kts 176°
2026-05-07 23:26 32.51940 -97.23265 17963 ft 407 kts 176°
2026-05-07 23:26 32.49141 -97.22703 18425 ft 409 kts 176°
2026-05-07 23:26 32.46636 -97.22197 18827 ft 412 kts 176°
2026-05-07 23:27 32.41051 -97.21078 19717 ft 418 kts 177°
2026-05-07 23:27 32.38174 -97.20509 20153 ft 421 kts 177°
2026-05-07 23:27 32.35304 -97.19944 20582 ft 423 kts 178°
2026-05-07 23:28 32.32389 -97.19370 20986 ft 425 kts 178°
2026-05-07 23:28 32.29450 -97.18857 21380 ft 424 kts 182°
2026-05-07 23:28 32.26528 -97.18852 21756 ft 417 kts 192°
2026-05-07 23:28 32.23697 -97.19227 22130 ft 417 kts 194°
2026-05-07 23:29 32.20835 -97.19620 22481 ft 418 kts 194°
2026-05-07 23:29 32.17979 -97.20009 22826 ft 420 kts 194°
2026-05-07 23:29 32.15063 -97.20403 23159 ft 423 kts 194°
2026-05-07 23:29 32.12129 -97.20795 23504 ft 425 kts 194°
2026-05-07 23:30 32.09189 -97.21190 23830 ft 426 kts 194°
2026-05-07 23:30 32.06253 -97.21582 24149 ft 428 kts 195°
2026-05-07 23:30 32.03464 -97.21925 24457 ft 431 kts 194°
2026-05-07 23:30 32.00469 -97.22310 24816 ft 431 kts 194°
2026-05-07 23:31 31.97487 -97.22711 25153 ft 431 kts 194°
2026-05-07 23:31 31.94529 -97.23115 25497 ft 432 kts 194°
2026-05-07 23:31 31.91528 -97.23525 25807 ft 433 kts 194°
2026-05-07 23:31 31.88579 -97.23927 26117 ft 434 kts 194°
2026-05-07 23:32 31.85505 -97.24344 26440 ft 435 kts 194°
2026-05-07 23:32 31.82536 -97.24741 26738 ft 436 kts 194°
2026-05-07 23:32 31.79596 -97.25131 27039 ft 437 kts 194°
2026-05-07 23:32 31.76572 -97.25532 27326 ft 437 kts 194°
2026-05-07 23:33 31.73546 -97.25934 27607 ft 438 kts 194°
2026-05-07 23:33 31.70631 -97.26325 27883 ft 439 kts 194°
2026-05-07 23:33 31.67639 -97.26771 28157 ft 437 kts 198°
2026-05-07 23:33 31.64716 -97.27651 28454 ft 428 kts 206°
2026-05-07 23:34 31.62441 -97.28699 28756 ft 424 kts 208°
2026-05-07 23:34 31.59713 -97.29993 29138 ft 421 kts 208°
2026-05-07 23:34 31.56990 -97.31275 29496 ft 420 kts 208°
2026-05-07 23:34 31.54293 -97.32526 29879 ft 421 kts 207°
2026-05-07 23:35 31.51687 -97.33772 30309 ft 415 kts 208°
2026-05-07 23:35 31.49288 -97.34919 30667 ft 413 kts 208°
2026-05-07 23:35 31.46631 -97.36169 31016 ft 412 kts 208°
2026-05-07 23:35 31.43982 -97.37420 31351 ft 409 kts 208°
2026-05-07 23:36 31.41341 -97.38651 31680 ft 407 kts 208°
2026-05-07 23:36 31.38714 -97.39869 32012 ft 405 kts 208°
2026-05-07 23:36 31.36131 -97.41067 32340 ft 402 kts 208°
2026-05-07 23:36 31.33527 -97.42280 32662 ft 400 kts 208°
2026-05-07 23:37 31.30952 -97.43484 32969 ft 398 kts 209°
2026-05-07 23:37 31.28375 -97.44694 33068 ft 397 kts 209°
2026-05-07 23:37 31.23346 -97.47054 33081 ft 393 kts 209°
2026-05-07 23:38 31.18265 -97.49430 33082 ft 393 kts 209°
2026-05-07 23:38 31.13184 -97.51805 33081 ft 393 kts 209°
2026-05-07 23:39 31.08355 -97.54049 33079 ft 394 kts 209°
2026-05-07 23:39 31.03256 -97.56422 33084 ft 395 kts 209°
2026-05-07 23:40 30.98149 -97.58800 33078 ft 395 kts 209°
2026-05-07 23:40 30.93045 -97.61180 33082 ft 394 kts 209°
2026-05-07 23:41 30.87938 -97.63556 33082 ft 395 kts 208°
2026-05-07 23:41 30.82861 -97.65916 33083 ft 396 kts 208°
2026-05-07 23:42 30.77741 -97.68281 33082 ft 395 kts 208°
2026-05-07 23:42 30.72696 -97.70615 33085 ft 397 kts 208°
2026-05-07 23:43 30.67551 -97.72999 33093 ft 398 kts 208°
2026-05-07 23:43 30.62573 -97.75295 33103 ft 400 kts 208°
2026-05-07 23:44 30.57200 -97.77168 33107 ft 412 kts 194°
2026-05-07 23:44 30.54327 -97.77244 33107 ft 424 kts 185°
2026-05-07 23:44 30.51382 -97.76968 33174 ft 429 kts 185°
2026-05-07 23:45 30.48573 -97.76704 33376 ft 429 kts 185°
2026-05-07 23:45 30.45486 -97.76508 33569 ft 421 kts 190°
2026-05-07 23:45 30.42571 -97.76485 33729 ft 424 kts 187°
2026-05-07 23:45 30.39590 -97.76245 33873 ft 428 kts 184°
2026-05-07 23:46 30.36670 -97.75899 34044 ft 431 kts 184°
2026-05-07 23:46 30.33657 -97.75514 34265 ft 431 kts 184°
2026-05-07 23:46 30.30698 -97.75149 34498 ft 429 kts 184°
2026-05-07 23:46 30.27785 -97.74826 34719 ft 427 kts 185°
2026-05-07 23:47 30.25022 -97.74555 34920 ft 426 kts 185°
2026-05-07 23:47 30.22096 -97.74294 35045 ft 426 kts 186°
2026-05-07 23:47 30.16183 -97.73800 35061 ft 425 kts 186°
2026-05-07 23:48 30.10485 -97.73313 35061 ft 426 kts 186°
2026-05-07 23:48 30.04559 -97.72784 35065 ft 426 kts 185°
2026-05-07 23:49 29.98647 -97.72251 35059 ft 426 kts 185°
2026-05-07 23:49 29.93406 -97.71796 35061 ft 425 kts 186°
2026-05-07 23:50 29.87495 -97.71287 35065 ft 427 kts 186°
2026-05-07 23:50 29.81561 -97.70748 35072 ft 427 kts 185°
2026-05-07 23:51 29.75878 -97.70245 35075 ft 425 kts 186°
2026-05-07 23:51 29.69966 -97.69730 35068 ft 426 kts 185°
2026-05-07 23:52 29.64107 -97.69204 35065 ft 427 kts 185°
2026-05-07 23:52 29.58179 -97.68674 35059 ft 427 kts 185°
2026-05-07 23:53 29.52277 -97.68159 35059 ft 428 kts 185°
2026-05-07 23:53 29.46317 -97.67632 35057 ft 429 kts 185°
2026-05-07 23:54 29.40369 -97.67108 35058 ft 427 kts 185°
2026-05-07 23:54 29.34445 -97.66584 35043 ft 426 kts 185°
2026-05-07 23:55 29.28543 -97.66068 35034 ft 428 kts 185°
2026-05-07 23:55 29.22592 -97.65545 35037 ft 428 kts 185°
2026-05-07 23:56 29.16654 -97.65030 35036 ft 428 kts 185°
2026-05-07 23:56 29.10696 -97.64519 35038 ft 430 kts 185°
2026-05-07 23:57 29.04744 -97.63997 35045 ft 431 kts 184°
2026-05-07 23:57 28.98748 -97.63468 35049 ft 432 kts 184°
2026-05-07 23:58 28.92753 -97.62942 35046 ft 431 kts 184°
2026-05-07 23:58 28.86816 -97.62425 35043 ft 430 kts 184°
2026-05-07 23:59 28.81835 -97.61992 35042 ft 431 kts 184°
2026-05-07 23:59 28.75858 -97.61472 35038 ft 430 kts 184°
2026-05-08 00:00 28.69873 -97.60952 35031 ft 431 kts 184°
2026-05-08 00:00 28.63870 -97.60436 35032 ft 432 kts 184°
2026-05-08 00:01 28.57883 -97.59923 35034 ft 434 kts 184°
2026-05-08 00:01 28.51860 -97.59400 35037 ft 434 kts 184°
2026-05-08 00:02 28.45847 -97.58878 35033 ft 432 kts 184°
2026-05-08 00:02 28.39888 -97.58359 35030 ft 432 kts 184°
2026-05-08 00:03 28.33886 -97.57850 35030 ft 432 kts 184°
2026-05-08 00:03 28.27891 -97.57344 35028 ft 432 kts 184°
2026-05-08 00:04 28.21899 -97.56824 35030 ft 431 kts 184°
2026-05-08 00:04 28.15954 -97.56309 35018 ft 430 kts 184°
2026-05-08 00:05 28.09984 -97.55798 35013 ft 431 kts 184°
2026-05-08 00:05 28.03987 -97.55289 35010 ft 431 kts 184°
2026-05-08 00:06 27.97992 -97.54780 35008 ft 432 kts 184°
2026-05-08 00:06 27.92020 -97.54265 35003 ft 432 kts 184°
2026-05-08 00:07 27.86010 -97.53753 34999 ft 433 kts 184°